Wind_Speed
20 22 21 16 10 14 12 7 4 10 8 5 4 3 4 5 4 2 2 2 2 2 3 1 0 0 2 6 5 1 1 2 4 3 2 1 3 5 5 3 2 4 4 6
19 19 21 18 11 8 5 5 4 11 3 4 3 3 3 1 2 2 4 3 2 2 3 2 3 2 2 8 6 3 4 2 4 3 3 3 6 7 6 2 1 8 4 1
20 19 19 21 12 10 4 3 2 7 11 7 4 5 2 3 0 1 0 2 2 4 3 4 3 4 5 9 8 8 6 5 8 6 7 1 8 9 10 10 6 7 12 17
21 20 18 20 14 9 3 3 3 2 2 5 3 2 1 3 3 2 2 2 3 3 4 3 4 4 3 5 6 5 3 5 8 15 20 17 20 19 17 18 19 11 14 12
20 20 20 18 16 8 7 3 4 5 4 2 1 2 1 0 1 2 1 2 1 2 3 4 3 4 4 2 5 5 1 4 4 8 16 13 13 15 16 18 21 20 23 26
19 19 19 17 16 13 7 5 6 3 1 3 2 2 2 2 1 3 1 1 1 3 4 8 9 8 6 2 2 8 3 3 3 6 7 14 12 7 11 8 8 15 15 16
17 17 17 16 15 13 9 6 3 1 3 3 2 5 4 5 4 2 3 4 3 4 6 13 11 10 13 12 13 8 4 2 2 6 11 4 2 1 4 10 11 13 14 10
17 15 15 15 13 10 9 7 4 3 2 3 4 7 5 3 4 4 5 7 6 6 5 3 5 3 3 3 3 9 12 5 4 4 4 14 1 2 1 3 5 4 13 13
15 15 13 12 12 10 8 6 6 4 4 4 3 5 6 3 3 2 4 5 6 2 1 2 3 3 2 1 4 5 7 8 4 1 4 5 2 2 5 3 3 3 7 7
14 15 14 12 11 10 8 7 5 4 4 5 6 4 3 7 4 2 2 2 3 6 3 4 4 3 1 3 3 5 5 4 11 11 8 9 7 5 4 4 3 0 3 6
17 15 16 14 12 10 9 8 7 5 5 13 13 12 9 5 5 3 4 2 3 2 5 3 3 4 3 3 2 5 8 7 6 5 7 9 10 6 6 4 6 3 5 9
18 16 15 14 13 12 9 7 9 9 9 10 17 17 14 17 13 7 7 3 3 6 3 3 1 4 3 4 5 3 5 7 3 8 6 1 13 11 8 8 6 11 15 17
18 18 15 15 14 13 11 9 10 11 9 14 10 7 13 23 26 22 9 7 9 5 6 2 1 7 3 4 7 5 7 9 5 2 9 19 22 18 19 21 19 18 18 14
19 19 16 13 14 15 13 12 10 8 7 5 5 5 8 9 12 18 25 19 8 7 6 4 4 4 7 4 6 7 9 9 10 13 20 25 27 21 13 11 14 19 21 21
18 18 18 13 14 14 15 15 14 12 7 5 10 19 19 18 14 12 17 21 18 9 4 4 4 4 3 5 4 13 18 12 9 8 14 15 15 13 16 18 23 19 20 22
16 18 16 13 14 14 12 6 2 1 10 3 4 8 8 8 9 14 15 15 13 10 5 5 5 6 4 4 5 12 15 27 33 20 17 21 22 22 24 25 17 16 19 14
16 16 16 14 16 15 9 5 4 1 4 3 7 6 4 6 8 8 10 14 11 10 5 6 4 4 6 4 10 12 16 25 26 28 24 23 26 18 13 18 20 25 20 15
15 15 16 15 17 19 19 18 20 11 5 6 2 4 3 10 5 4 8 5 8 8 6 3 5 4 6 7 23 22 22 19 21 26 26 30 26 23 24 25 23 18 15 14
12 15 16 15 14 10 10 9 10 17 14 5 5 3 3 11 6 4 6 6 4 4 5 5 8 5 8 15 19 22 21 13 8 5 12 17 20 26 25 20 15 13 12 12
15 18 11 6 8 11 7 4 3 10 11 9 7 8 4 12 7 5 5 3 3 3 4 4 5 7 33 35 31 30 19 17 16 14 16 17 14 14 12 9 10 10 10 11
12 9 9 9 8 7 5 4 5 7 5 9 9 18 5 11 4 4 8 3 3 3 1 3 4 5 7 15 23 30 39 32 24 26 23 18 16 13 12 9 9 9 11 12
11 8 11 11 8 7 5 5 5 6 6 6 5 8 13 8 7 4 6 3 2 6 5 2 5 6 21 14 9 9 15 17 16 16 13 12 10 7 9 10 9 10 10 11
20 10 8 7 6 6 8 10 4 4 6 9 7 4 9 6 8 3 3 6 6 4 3 4 7 9 9 10 14 14 14 13 11 11 10 10 9 10 10 9 10 12 12 12
7 9 7 6 6 8 6 6 5 6 5 14 13 5 3 4 4 3 4 3 4 3 4 8 4 16 14 15 17 15 12 10 9 9 9 10 11 11 11 11 12 12 13 13
11 6 6 11 16 5 3 14 6 6 11 21 8 3 2 2 3 3 2 3 6 6 6 4 8 10 9 18 21 17 14 11 9 9 10 10 11 11 12 12 12 13 14 15
10 9 7 7 3 5 10 13 17 13 19 15 6 3 2 6 4 4 10 5 7 5 4 17 11 10 10 17 20 16 14 13 11 11 11 11 11 10 10 13 15 15 16 17
10 13 36 32 19 14 22 25 24 20 24 4 4 9 10 2 2 5 6 7 4 9 16 11 10 12 12 15 20 21 20 18 15 14 14 13 12 14 14 16 16 17 18 18
Wind_Direction
7 10 19 28 30 46 35 39 54 20 51 51 45 76 128 149 174 184 139 126 91 106 154 123 165 29 277 188 183 146 35 328 280 259 140 321 268 259 233 269 213 253 296 281
9 9 9 18 30 33 10 58 65 26 30 92 74 76 66 8 160 169 160 146 204 176 165 164 220 214 211 191 199 194 160 191 293 188 148 191 224 199 218 210 275 241 263 256
14 12 12 8 14 19 76 93 53 38 63 81 109 133 131 133 144 80 112 107 153 168 172 220 200 221 199 195 202 185 179 210 226 247 271 232 240 227 215 214 235 262 237 275
13 14 12 13 9 14 76 79 88 76 52 47 53 3 130 151 182 213 211 164 230 195 179 198 229 225 218 210 215 189 229 259 234 257 270 271 266 262 246 228 235 250 263 253
11 11 13 14 15 9 26 83 131 106 107 119 116 342 99 258 36 244 191 268 156 252 261 272 263 227 228 254 168 189 230 283 314 287 280 273 263 253 243 242 247 251 259 269
7 9 11 14 20 31 45 57 95 120 142 147 203 176 167 137 212 157 138 59 313 262 272 312 284 263 276 316 218 201 214 267 305 273 320 301 275 254 215 215 228 229 240 250
6 7 8 11 15 30 44 32 2 300 148 216 193 182 194 201 191 217 244 189 192 198 306 299 274 252 248 239 230 222 219 220 261 292 312 275 49 294 246 246 267 228 249 251
354 2 5 5 9 8 22 16 1 333 272 199 204 214 226 222 238 242 246 242 232 275 320 281 297 229 211 168 210 225 221 231 268 275 291 286 229 132 163 250 307 254 255 273
341 347 359 360 356 360 351 358 359 337 309 233 185 171 190 223 217 233 243 241 238 232 220 221 251 275 340 239 161 69 166 225 236 228 272 273 86 174 195 199 229 189 229 262
338 333 340 351 349 347 349 329 319 327 291 277 215 224 207 178 176 236 240 204 199 194 203 222 226 240 226 249 230 173 155 185 222 236 253 272 248 183 153 247 51 25 242 273
346 328 326 338 341 340 338 326 314 289 258 274 261 252 228 208 208 213 155 218 186 171 216 223 205 225 207 249 232 201 197 193 201 200 222 255 158 131 209 7 315 264 286 286
338 338 317 325 332 331 329 328 316 301 272 263 277 271 257 245 244 261 220 278 169 208 200 226 206 223 202 221 268 204 239 218 223 214 226 150 188 236 247 291 281 296 293 292
322 327 322 312 322 324 319 313 314 316 295 296 284 283 257 247 250 242 236 244 231 222 218 211 293 246 186 223 228 229 227 204 236 257 244 249 262 259 268 277 279 291 289 300
308 314 317 304 311 315 317 307 302 306 296 283 280 289 270 257 244 230 226 237 221 220 210 233 239 244 206 244 282 243 240 168 224 254 270 274 271 266 258 284 300 294 290 291
297 302 304 292 298 308 314 304 291 267 241 296 287 287 276 253 242 233 226 231 232 221 216 216 232 242 251 235 271 253 215 225 211 233 237 244 265 247 277 293 301 295 296 281
283 288 284 280 285 301 315 298 328 238 206 265 295 290 262 242 225 219 216 217 226 217 208 222 235 227 227 262 255 248 219 219 225 241 253 258 265 272 282 289 284 299 305 276
275 281 278 270 274 278 276 273 294 224 182 248 292 279 268 219 199 197 207 206 202 206 227 227 230 207 207 261 256 253 240 234 237 240 249 264 266 269 266 275 282 293 285 276
269 274 268 259 270 272 271 269 253 240 252 240 249 262 270 194 198 194 188 201 209 226 234 216 199 180 211 252 248 263 261 255 248 256 255 260 269 269 277 284 288 281 262 257
268 258 241 247 258 259 259 270 245 225 220 253 207 223 234 176 170 177 176 184 213 236 245 223 182 193 225 232 255 255 256 228 228 243 255 261 269 285 290 284 270 256 255 242
280 243 225 221 197 234 266 250 213 203 212 233 248 219 205 171 166 166 167 195 248 233 224 178 234 249 258 252 245 249 248 239 245 256 272 284 280 288 284 278 267 253 241 231
254 221 212 205 190 182 206 240 210 191 239 218 240 203 171 189 155 178 198 182 190 255 177 229 252 257 245 262 247 240 239 239 251 268 274 276 281 275 249 271 270 244 227 223
224 218 201 180 189 199 206 204 190 212 238 209 192 199 193 174 177 164 178 203 180 239 144 234 261 256 256 254 206 186 192 207 224 241 257 264 270 251 248 264 258 239 230 222
237 203 182 190 188 221 208 201 203 222 205 190 165 162 169 160 183 159 173 190 219 126 205 237 237 266 282 231 198 183 186 203 222 236 248 249 251 254 261 257 244 227 225 225
235 199 195 197 202 237 207 193 190 208 181 167 157 131 167 154 166 155 218 202 152 199 232 237 251 267 277 231 209 209 214 229 237 240 246 249 249 253 256 254 244 234 232 230
218 218 232 208 229 238 241 218 212 185 163 154 139 109 193 161 204 198 115 212 238 224 233 237 264 319 246 210 207 210 221 234 242 251 260 260 253 254 255 254 246 235 227 227
227 221 245 243 224 223 209 225 225 206 167 154 128 127 227 227 203 179 212 188 222 242 224 247 279 300 281 228 214 219 227 237 246 257 262 257 255 257 257 251 246 239 236 234
202 226 232 245 260 257 232 233 227 198 165 184 169 180 204 80 236 251 199 214 229 250 266 276 288 299 281 234 224 225 228 230 237 249 254 252 250 252 255 261 256 249 246 244
Height
1534 1531 1526 1522 1520 1518 1517 1514 1516 1515 1513 1514 1522 1528 1528 1531 1532 1533 1534 1535 1534 1534 1537 1537 1537 1536 1537 1538 1538 1536 1538 1536 1534 1525 1527 1529 1526 1521 1520 1517 1517 1514 1512 1494
1534 1531 1529 1524 1520 1518 1517 1517 1519 1518 1516 1522 1527 1532 1532 1532 1532 1533 1533 1532 1533 1535 1534 1534 1536 1535 1535 1535 1535 1534 1535 1534 1531 1521 1526 1526 1521 1518 1518 1520 1523 1514 1506 1479
1535 1532 1529 1526 1522 1519 1517 1518 1521 1522 1521 1526 1527 1529 1531 1532 1533 1533 1533 1532 1534 1534 1534 1535 1531 1531 1532 1532 1532 1532 1533 1530 1524 1513 1505 1513 1513 1512 1514 1513 1511 1497 1492 1480
1536 1533 1530 1526 1523 1520 1520 1519 1526 1528 1529 1531 1531 1531 1530 1531 1531 1533 1534 1533 1532 1530 1529 1530 1529 1529 1529 1531 1531 1533 1533 1526 1522 1517 1511 1511 1509 1507 1506 1508 1501 1499 1480 1485
1538 1535 1532 1529 1524 1522 1522 1522 1525 1527 1531 1533 1532 1532 1531 1532 1533 1533 1531 1531 1533 1533 1529 1527 1525 1527 1529 1525 1532 1534 1535 1527 1526 1521 1505 1506 1505 1499 1499 1497 1494 1490 1486 1479
1540 1536 1533 1530 1528 1525 1525 1526 1525 1526 1531 1531 1530 1530 1531 1532 1532 1532 1532 1533 1532 1531 1531 1530 1528 1529 1529 1530 1528 1529 1530 1528 1525 1509 1505 1502 1491 1483 1487 1486 1483 1481 1483 1470
1540 1538 1535 1532 1530 1528 1528 1529 1529 1527 1526 1529 1527 1528 1530 1530 1530 1530 1529 1529 1529 1528 1526 1525 1522 1522 1522 1524 1525 1527 1526 1528 1527 1515 1506 1492 1482 1484 1484 1484 1478 1477 1472 1470
1540 1538 1536 1533 1531 1530 1529 1529 1530 1530 1526 1525 1526 1527 1527 1528 1529 1528 1526 1525 1526 1525 1525 1521 1515 1511 1515 1518 1522 1523 1526 1525 1521 1517 1510 1486 1477 1482 1483 1481 1471 1471 1471 1468
1540 1538 1536 1534 1531 1530 1530 1529 1529 1530 1531 1524 1523 1523 1524 1524 1524 1526 1524 1524 1523 1524 1524 1521 1516 1507 1510 1508 1515 1522 1524 1524 1524 1521 1514 1487 1473 1478 1479 1479 1467 1467 1468 1466
1540 1537 1535 1534 1532 1529 1529 1528 1528 1528 1529 1524 1524 1523 1521 1520 1521 1521 1521 1522 1523 1523 1520 1517 1513 1510 1515 1505 1506 1512 1516 1521 1517 1512 1509 1484 1469 1475 1479 1473 1464 1464 1465 1465
1540 1537 1535 1533 1531 1529 1528 1528 1526 1527 1526 1521 1520 1519 1520 1519 1519 1516 1519 1520 1519 1521 1518 1513 1509 1510 1507 1509 1503 1501 1497 1500 1502 1503 1502 1488 1468 1475 1472 1462 1461 1463 1463 1463
1539 1536 1534 1532 1530 1528 1527 1525 1525 1524 1523 1517 1515 1514 1515 1515 1517 1518 1516 1514 1512 1512 1511 1513 1511 1508 1510 1502 1494 1499 1495 1483 1477 1479 1465 1460 1461 1458 1460 1460 1461 1461 1461 1460
1537 1535 1532 1530 1528 1527 1526 1524 1523 1521 1518 1511 1506 1505 1506 1507 1509 1512 1514 1512 1511 1510 1510 1511 1509 1504 1502 1493 1491 1484 1482 1480 1478 1476 1453 1456 1456 1456 1456 1456 1455 1455 1453 1452
1533 1533 1531 1528 1526 1525 1523 1522 1521 1521 1521 1514 1504 1501 1502 1502 1501 1502 1505 1506 1507 1508 1509 1509 1506 1503 1499 1489 1483 1478 1471 1476 1464 1459 1452 1451 1448 1448 1449 1450 1449 1448 1447 1445
1528 1529 1528 1526 1525 1522 1521 1518 1516 1516 1522 1516 1503 1497 1494 1496 1497 1498 1499 1503 1505 1505 1507 1507 1505 1500 1499 1490 1486 1462 1458 1451 1455 1440 1440 1442 1441 1443 1444 1443 1443 1441 1439 1437
1521 1523 1523 1523 1523 1522 1519 1516 1514 1512 1514 1515 1507 1496 1490 1490 1491 1492 1494 1497 1502 1504 1502 1499 1495 1494 1495 1484 1466 1437 1436 1436 1436 1433 1436 1435 1435 1435 1436 1436 1436 1435 1432 1429
1516 1516 1517 1518 1519 1520 1521 1518 1516 1514 1513 1513 1506 1494 1490 1488 1489 1490 1493 1494 1494 1497 1497 1493 1490 1490 1492 1482 1454 1424 1428 1429 1430 1431 1432 1429 1430 1429 1428 1429 1429 1427 1426 1425
1512 1511 1511 1512 1514 1514 1513 1513 1512 1513 1515 1511 1505 1492 1489 1487 1489 1490 1490 1493 1496 1493 1488 1485 1484 1484 1483 1466 1418 1423 1425 1426 1426 1427 1427 1426 1426 1425 1424 1424 1422 1421 1420 1420
1508 1507 1507 1507 1508 1508 1506 1506 1505 1507 1514 1505 1498 1490 1480 1483 1484 1488 1490 1490 1490 1490 1485 1480 1479 1470 1454 1415 1416 1415 1416 1419 1420 1420 1422 1422 1421 1420 1419 1417 1415 1415 1417 1418
1502 1504 1505 1501 1498 1500 1506 1501 1502 1503 1502 1498 1488 1477 1476 1478 1481 1484 1488 1488 1484 1480 1475 1477 1469 1442 1416 1405 1403 1407 1410 1413 1416 1417 1417 1417 1415 1416 1415 1415 1414 1413 1413 1415
1495 1499 1498 1498 1498 1498 1499 1500 1498 1494 1491 1481 1470 1468 1470 1472 1473 1475 1479 1479 1480 1477 1469 1471 1454 1428 1395 1391 1391 1394 1399 1404 1408 1410 1411 1411 1410 1409 1411 1411 1411 1411 1411 1411
1491 1491 1493 1494 1496 1495 1494 1487 1484 1483 1473 1464 1463 1463 1465 1467 1469 1469 1473 1473 1478 1467 1468 1469 1448 1404 1387 1387 1387 1389 1392 1396 1400 1403 1404 1405 1405 1404 1406 1407 1407 1409 1411 1412
1488 1488 1488 1488 1488 1490 1478 1471 1469 1466 1456 1457 1458 1461 1463 1463 1465 1467 1469 1468 1466 1467 1465 1449 1414 1390 1389 1389 1389 1389 1390 1393 1394 1396 1398 1399 1401 1402 1401 1402 1402 1403 1405 1408
1483 1481 1480 1474 1472 1459 1450 1445 1445 1445 1446 1451 1457 1458 1459 1460 1463 1462 1465 1459 1461 1460 1455 1427 1392 1383 1385 1388 1390 1392 1392 1392 1392 1392 1393 1394 1396 1397 1398 1398 1399 1399 1401 1403
1471 1471 1462 1451 1439 1438 1440 1444 1444 1442 1444 1450 1456 1457 1460 1460 1459 1457 1459 1460 1452 1441 1416 1397 1383 1383 1382 1384 1385 1388 1390 1391 1391 1391 1391 1391 1392 1392 1393 1394 1395 1395 1396 1397
1462 1453 1445 1436 1438 1433 1436 1441 1443 1442 1444 1447 1448 1455 1458 1452 1450 1452 1443 1441 1430 1404 1395 1382 1382 1381 1382 1384 1384 1385 1387 1388 1389 1388 1389 1388 1388 1388 1388 1389 1390 1391 1391 1391
1436 1429 1428 1427 1427 1425 1426 1430 1434 1436 1443 1440 1442 1442 1440 1445 1445 1442 1426 1413 1396 1390 1385 1383 1382 1382 1382 1381 1382 1382 1382 1381 1382 1383 1384 1384 1384 1384 1384 1383 1385 1386 1386 1387